Location: Dunedin
(45.8670°S, 170.5000°E)
Time: 12:29:08
(UTC+13:00)

BREEZE-M DEB (TANK) - Pass Details

Date: 24 January 2019
Orbit: 301 x 13847 km, 49.6° (Epoch: 14 February)

Event Time Altitude Azimuth Distance (km) Brightness Sun altitude
Rises 23:35:24 0° 283° (WNW) 5,633 8.2 -18.1°
Reaches altitude 10° 23:40:40 10° 279° (W) 3,251 7.0 -18.6°
Maximum altitude 23:46:47 60° 198° (SSW) 622 3.3 -19.2°
Enters shadow 23:48:55 15° 118° (ESE) 1,177 4.5 -19.4°
